{"data":{"norad_id":51856,"intl_designator":"2022-022E","name":"STARLINK-3568","alt_names":[],"object_type":"PAYLOAD","status":"ACTIVE","operator":null,"country":"US","launch_date":"2022-03-03","launch_site_code":"AFETR","launch_vehicle":null,"mission":null,"orbit_class":"UNKNOWN","rcs_meters":null,"size_class":null,"mass_kg":null,"dimensions":null,"purposes":["comms"],"wikipedia_slug":null,"has_3d_model":false,"image_url":null,"decayed_at":null,"tle_current":{"epoch":"2026-09-19T12:15:28.704960Z","epoch_age_seconds":137734,"freshness":"FRESH","line1":"1 51856U 22022E   26262.51074890 -.00006826  00000+0 -20818-3 0  9990","line2":"2 51856  53.1599 215.5390 0001583  95.4608 264.6574 15.31730184252492","mean_motion":15.31730184,"eccentricity":0.0001583,"inclination_deg":53.1599,"raan_deg":215.539,"arg_perigee_deg":95.4608,"mean_anomaly_deg":264.6574,"bstar":-0.00020818,"rev_number":25249,"period_min":94.011335354086,"perigee_km":469.56585678463,"apogee_km":471.73418275509,"semimajor_km":6848.7870197699,"source":"CELESTRAK","updated_at":"2026-09-20T09:00:39.945121Z"}}}